Zurück zum Katalog

FENGYUN 1C DEB

LostSSO
NORAD 37909·DEBRIS·🇨🇳 China

Gestartet May 10, 1999 von Taiyuan Satellite Launch Center

Loading…

Nächste Überflüge (nächste 24 Stunden)

TLE

VeraltetSource: Space-Track

Epoche: Mar 17, 2025, 04:06 UTC

1 37909U 99025ENJ 25076.17110926  .00005348  00000-0  41974-2 0  9997
2 37909  98.8747  61.7091 0187429 197.5364 161.9263 13.84428050780247

Verfolge FENGYUN 1C DEB in Echtzeit mit AllMySat

Download on the App Store